Location: Blue Mountain Vista Observatory
(40.6992°N, 75.9422°W)
Time: 07:17:52
(UTC-05:00)

Amateur Radio Satellites - All Passes

Search period start: 27 January 2015 06:47
Search period end: 28 January 2015 06:47
Location: Blue Mountain Vista Observatory, 40.6992°N, 75.9422°W

Satellite Date Start Highest point End Downlink Frequencies (MHz)
Time Altitude Azimuth
STRAND 1 27 Jan 07:11:48 07:15:58 24° 267° (W) 07:20:02 437.568
DANDE 27 Jan 07:12:15 07:15:51 12° 308° (NW) 07:18:52 436.750
Cubesat XI-IV 27 Jan 07:16:27 07:21:25 39° 291° (WNW) 07:26:20 437.490
BRITE-PL 27 Jan 07:18:18 07:20:20 12° 84° (E) 07:22:43 437.365/2234.400
CUTE-I 27 Jan 07:37:35 07:42:02 26° 294° (WNW) 07:46:22 437.470
RS-15 27 Jan 07:43:32 07:53:13 34° 326° (NNW) 08:02:54 29.354- 29.394
DOVE 4 27 Jan 07:50:23 07:51:31 11° 84° (E) 07:53:00 437.250
SEEDS 27 Jan 08:00:48 08:02:52 14° 89° (E) 08:05:08 437.485
COMPASS 1 27 Jan 08:29:46 08:33:09 24° 94° (E) 08:36:36 437.405
UNISAT 6 27 Jan 08:30:18 08:32:06 12° 63° (ENE) 08:34:09 437.425
CANX-2 27 Jan 08:36:28 08:40:33 46° 98° (E) 08:44:37 2200.000
YUBILEINY 27 Jan 08:44:27 08:51:21 26° 277° (W) 08:57:56 435.215
POLYITAN 1 27 Jan 08:53:53 08:55:16 12° 63° (ENE) 08:56:50 437.675
BRITE-PL 27 Jan 08:53:59 08:59:43 88° 287° (WNW) 09:05:15 437.365/2234.400
Oscar 11 27 Jan 08:54:41 08:57:49 20° 92° (E) 09:01:04 145.826/435.025
HO-68 27 Jan 08:56:31 09:03:40 69° 103° (ESE) 09:10:48 435.675
AAUSAT CUBESAT 2 27 Jan 08:57:29 09:01:28 44° 98° (E) 09:05:26 437.432
CUTE 1.7 + AOD 2 27 Jan 09:00:53 09:05:09 82° 101° (ESE) 09:09:21 437.475
GOMX 1 27 Jan 09:01:30 09:07:01 80° 101° (ESE) 09:12:16 467.674
ANTELSAT 27 Jan 09:03:45 09:07:38 27° 69° (ENE) 09:11:37 437.575/2403.000
BUGSAT 1 27 Jan 09:05:22 09:06:15 11° 63° (ENE) 09:07:21 437.445
DELFI C3 27 Jan 09:06:40 09:09:44 21° 93° (E) 09:12:52 145.870
TIGRISAT 27 Jan 09:12:37 09:16:45 32° 70° (ENE) 09:20:57 435.000
POPSAT HIP 1 27 Jan 09:13:31 09:16:25 18° 67° (ENE) 09:19:28 437.405
DUCHIFAT 1 27 Jan 09:17:25 09:20:28 20° 67° (ENE) 09:23:38 145.980
CUBEBUG 2 27 Jan 09:20:37 09:24:34 28° 94° (E) 09:28:28 437.445
VERMONT LUNAR 27 Jan 09:23:58 09:27:04 30° 156° (SSE) 09:30:11 437.305
DOVE 4 27 Jan 09:24:51 09:30:09 85° 286° (WNW) 09:35:11 437.250
UKube-1 27 Jan 09:28:24 09:32:03 26° 95° (E) 09:35:44 .
CINEMA 3 27 Jan 09:29:11 09:34:04 62° 100° (E) 09:38:42 145.822/145.860
SEEDS 27 Jan 09:35:00 09:39:03 47° 287° (WNW) 09:43:04 437.485
ZACube-1 27 Jan 09:38:24 09:42:19 30° 95° (E) 09:46:10 437.345
DX 1 27 Jan 09:46:02 09:50:14 43° 99° (E) 09:54:26 434.975-435.025
NANOSAT C BR1 27 Jan 09:50:18 09:54:21 45° 73° (ENE) 09:58:29 145.865
FUNcube-1 27 Jan 09:50:58 09:55:10 40° 97° (E) 09:59:16 145.935
50 SAT 27 Jan 09:57:30 10:00:19 18° 92° (E) 10:03:13 437.505
HUMSAT D 27 Jan 09:59:32 10:03:09 27° 95° (E) 10:06:46 437.325/437.525
AISAT 27 Jan 10:00:00 10:03:35 23° 94° (E) 10:07:15 437.250
RS-15 27 Jan 10:02:52 10:10:21 20° 0° (N) 10:18:00 29.354- 29.394
QB50P2 27 Jan 10:03:04 10:07:18 65° 75° (ENE) 10:11:35 145.880/145.840
UNISAT 6 27 Jan 10:03:38 10:08:22 76° 259° (WSW) 10:13:06 437.425
UWE-3 27 Jan 10:05:11 10:09:45 73° 102° (ESE) 10:14:08 435.000/436.395/437.385
COMPASS 1 27 Jan 10:05:20 10:08:53 26° 290° (WNW) 10:12:20 437.405
PHONESAT 2.4 27 Jan 10:08:58 10:12:18 36° 157° (SSE) 10:15:41 2401.200-2431.200
QB50P1 27 Jan 10:13:12 10:17:28 84° 77° (ENE) 10:21:48 145.935-145.965
CANX-2 27 Jan 10:13:36 10:16:11 15° 294° (WNW) 10:18:36 2200.000
BEESAT 2 27 Jan 10:23:20 10:25:46 15° 41° (NE) 10:28:19 435.950
POLYITAN 1 27 Jan 10:26:25 10:30:42 69° 258° (WSW) 10:35:02 437.675
VELOX 1 27 Jan 10:28:58 10:33:18 46° 99° (E) 10:37:38 145.980
Oscar 11 27 Jan 10:30:13 10:34:09 34° 289° (WNW) 10:38:01 145.826/435.025
AAUSAT CUBESAT 2 27 Jan 10:34:17 10:36:49 16° 294° (WNW) 10:39:12 437.432
BRITE-PL 27 Jan 10:34:38 10:37:27 14° 299° (WNW) 10:39:56 437.365/2234.400
BUGSAT 1 27 Jan 10:37:11 10:41:15 67° 259° (W) 10:45:23 437.445
BEESAT 3 27 Jan 10:39:17 10:42:33 22° 46° (NE) 10:45:51 437.485
ANTELSAT 27 Jan 10:40:06 10:44:21 32° 265° (W) 10:48:33 437.575/2403.000
GOMX 1 27 Jan 10:41:24 10:44:28 15° 298° (WNW) 10:47:14 467.674
DELFI C3 27 Jan 10:41:30 10:45:02 29° 289° (WNW) 10:48:30 145.870
CUBEBUG 1 27 Jan 10:44:37 10:48:26 28° 95° (E) 10:52:18 437.445
HO-68 27 Jan 10:45:17 10:50:51 24° 300° (WNW) 10:56:12 435.675
SO-50 27 Jan 10:46:02 10:50:32 67° 120° (ESE) 10:55:14 436.795
AIST 1 27 Jan 10:47:35 10:50:53 23° 90° (E) 10:54:18
POPSAT HIP 1 27 Jan 10:48:03 10:52:05 39° 262° (W) 10:56:08 437.405
TIGRISAT 27 Jan 10:49:31 10:53:32 26° 266° (W) 10:57:28 435.000
DUCHIFAT 1 27 Jan 10:52:11 10:56:08 35° 263° (W) 11:00:04 145.980
GONETS M04 27 Jan 10:53:47 10:59:02 18° 59° (ENE) 11:04:43
CUBEBUG 2 27 Jan 10:57:18 11:01:15 27° 291° (WNW) 11:05:00 437.445
VERMONT LUNAR 27 Jan 11:01:28 11:04:58 79° 173° (S) 11:08:30 437.305
UKube-1 27 Jan 11:04:27 11:08:12 27° 291° (WNW) 11:11:52 .
DOVE 4 27 Jan 11:05:21 11:07:07 11° 300° (WNW) 11:08:35 437.250
CINEMA 3 27 Jan 11:07:51 11:10:45 15° 296° (WNW) 11:13:25 145.822/145.860
ZACube-1 27 Jan 11:14:56 11:18:36 25° 292° (WNW) 11:22:06 437.345
DX 1 27 Jan 11:23:10 11:26:13 18° 294° (WNW) 11:29:07 434.975-435.025
TISAT 1 27 Jan 11:24:41 11:27:33 18° 92° (E) 11:30:33 437.305
NANOSAT C BR1 27 Jan 11:27:57 11:30:33 15° 270° (W) 11:32:59 145.865
FUNcube-1 27 Jan 11:28:05 11:31:15 19° 294° (WNW) 11:34:14 145.935
ESTCUBE 1 27 Jan 11:31:28 11:36:00 83° 286° (WNW) 11:40:33 437.505/2401.250
50 SAT 27 Jan 11:31:54 11:35:35 33° 289° (WNW) 11:39:11 437.505
HUMSAT D 27 Jan 11:35:22 11:38:53 25° 291° (WNW) 11:42:17 437.325/437.525
AISAT 27 Jan 11:36:13 11:40:17 32° 290° (WNW) 11:44:16 437.250
Oscar 19 27 Jan 11:42:06 11:46:04 23° 66° (ENE) 11:50:11 437.125/150
QB50P2 27 Jan 11:42:44 11:43:46 11° 272° (W) 11:44:32 145.880/145.840
UWE-3 27 Jan 11:44:02 11:45:43 12° 297° (WNW) 11:47:09 435.000/436.395/437.385
AIST 2 27 Jan 11:44:34 11:48:32 36° 51° (NE) 11:52:28 435.215
PHONESAT 2.4 27 Jan 11:47:04 11:50:43 84° 173° (S) 11:54:22 2401.200-2431.200
ITAMSAT 1 27 Jan 11:56:12 11:57:32 11° 59° (ENE) 11:59:10 435.822/435.867
BEESAT 2 27 Jan 12:00:19 12:04:29 67° 241° (WSW) 12:08:34 435.950
VELOX 1 27 Jan 12:06:33 12:09:34 17° 294° (WNW) 12:12:27 145.980
SPROUT 27 Jan 12:14:35 12:18:56 67° 101° (E) 12:23:15 437.525
BEESAT 3 27 Jan 12:16:58 12:20:52 38° 244° (WSW) 12:24:39 437.485
RS-15 27 Jan 12:17:44 12:27:32 34° 34° (NE) 12:37:53 29.354- 29.394
CUBEBUG 1 27 Jan 12:21:00 12:24:46 27° 291° (WNW) 12:28:27 437.445
SWISSCUBE 27 Jan 12:24:41 12:26:56 14° 89° (E) 12:29:27 437.505
AIST 1 27 Jan 12:24:50 12:28:29 27° 286° (WNW) 12:32:05
SO-50 27 Jan 12:28:21 12:31:38 18° 320° (NW) 12:34:53 436.795
Gurwin Techsat 1B 27 Jan 12:37:53 12:41:28 19° 64° (ENE) 12:45:14 435.225
VERMONT LUNAR 27 Jan 12:39:35 12:43:06 80° 191° (S) 12:46:39 437.305
BEESAT 27 Jan 12:40:09 12:43:22 18° 91° (E) 12:46:45 436.000
ITUPSAT 1 27 Jan 12:42:33 12:45:53 19° 92° (E) 12:49:22 437.325
GONETS M04 27 Jan 12:48:42 12:57:26 86° 82° (E) 13:06:09
TISAT 1 27 Jan 12:59:34 13:03:35 39° 288° (WNW) 13:07:34 437.305
PCSat 27 Jan 13:14:18 13:19:19 37° 52° (NE) 13:24:21 145.827
Oscar 19 27 Jan 13:20:13 13:25:11 44° 262° (W) 13:30:09 437.125/150
AIST 2 27 Jan 13:23:36 13:26:59 22° 247° (WSW) 13:30:14 435.215
PHONESAT 2.4 27 Jan 13:25:38 13:29:18 75° 191° (S) 13:32:57 2401.200-2431.200
ITAMSAT 1 27 Jan 13:31:08 13:36:19 85° 76° (ENE) 13:41:33 435.822/435.867
KKS-1 27 Jan 13:36:42 13:38:45 13° 89° (E) 13:41:02 437.445
AO-7 27 Jan 13:39:38 13:45:54 25° 56° (NE) 13:52:25 29.400- 29.500
SPROUT 27 Jan 13:52:49 13:54:33 12° 296° (WNW) 13:56:03 437.525
SWISSCUBE 27 Jan 14:00:34 14:05:19 62° 286° (WNW) 14:10:02 437.505
Gurwin Techsat 1B 27 Jan 14:15:51 14:21:04 56° 260° (W) 14:26:18 435.225
BEESAT 27 Jan 14:16:57 14:21:31 46° 288° (WNW) 14:26:03 436.000
VERMONT LUNAR 27 Jan 14:17:53 14:21:02 31° 204° (SSW) 14:24:11 437.305
ITUPSAT 1 27 Jan 14:19:30 14:24:03 44° 288° (WNW) 14:28:35 437.325
HORYU 2 27 Jan 14:21:44 14:26:07 56° 74° (ENE) 14:30:34 437.375
DANDE 27 Jan 14:25:47 14:31:12 24° 61° (ENE) 14:35:47 436.750
RS-15 27 Jan 14:30:04 14:41:31 86° 238° (WSW) 14:53:27 29.354- 29.394
M-CUBED/EXP-1 PRIME 27 Jan 14:36:17 14:37:06 11° 96° (E) 14:38:06 437.505
GONETS M04 27 Jan 14:47:39 14:53:17 18° 280° (W) 14:58:26
PCSat 27 Jan 14:57:53 15:02:41 31° 250° (WSW) 15:07:21 145.827
PHONESAT 2.4 27 Jan 15:04:28 15:07:37 27° 206° (SSW) 15:10:45 2401.200-2431.200
CUSAT 1 27 Jan 15:05:36 15:12:04 55° 74° (ENE) 15:16:53 437.405
AUBIESAT-1 27 Jan 15:09:30 15:12:21 26° 102° (ESE) 15:15:17 437.475
STARS 27 Jan 15:09:39 15:14:09 90° 285° (WNW) 15:18:34 437.465
KKS-1 27 Jan 15:11:26 15:15:51 57° 287° (WNW) 15:20:15 437.445
ITAMSAT 1 27 Jan 15:15:11 15:16:38 11° 273° (W) 15:17:41 435.822/435.867
AO-7 27 Jan 15:29:34 15:37:58 79° 254° (WSW) 15:46:23 29.400- 29.500
JAS-2 27 Jan 15:49:12 15:54:46 67° 75° (ENE) 15:59:58 435.910
HORYU 2 27 Jan 16:00:51 16:03:14 14° 270° (W) 16:05:23 437.375
DANDE 27 Jan 16:08:39 16:15:23 53° 268° (W) 16:20:25 436.750
M-CUBED/EXP-1 PRIME 27 Jan 16:09:17 16:12:22 36° 292° (WNW) 16:15:30 437.505
O/OREOS (USA 219) 27 Jan 16:13:51 16:18:09 49° 107° (ESE) 16:22:32 437.305
MOZHAYETS 4 27 Jan 16:35:49 16:40:12 45° 98° (E) 16:44:35
RS-15 27 Jan 16:44:33 16:52:41 21° 257° (WSW) 17:00:19 29.354- 29.394
AUBIESAT-1 27 Jan 16:45:04 16:47:11 16° 296° (WNW) 16:49:14 437.475
CUSAT 1 27 Jan 16:49:59 16:54:14 19° 279° (W) 16:57:36 437.405
Cubesat XI-IV 27 Jan 16:58:24 17:03:22 43° 70° (ENE) 17:08:25 437.490
CUTE-I 27 Jan 17:18:40 17:23:54 65° 74° (ENE) 17:29:13 437.470
AO-7 27 Jan 17:27:46 17:32:15 14° 274° (W) 17:36:07 29.400- 29.500
JAS-2 27 Jan 17:37:28 17:40:28 14° 270° (W) 17:43:03 435.910
PRISM 27 Jan 17:38:49 17:41:49 20° 93° (E) 17:44:57 437.425
SO-50 27 Jan 17:39:29 17:40:55 11° 33° (NNE) 17:42:31 436.795
STRAND 1 27 Jan 17:44:23 17:46:39 13° 88° (E) 17:49:14 437.568
O/OREOS (USA 219) 27 Jan 17:54:49 17:57:55 18° 306° (NW) 18:00:55 437.305
YUBILEINY 27 Jan 17:56:02 17:59:36 14° 77° (ENE) 18:03:51 435.215
MOZHAYETS 4 27 Jan 18:14:00 18:17:09 18° 294° (WNW) 18:20:10
CUBESAT XI-V 27 Jan 18:22:40 18:27:10 45° 98° (E) 18:31:42 437.345
BRITE-PL 27 Jan 18:29:03 18:31:20 13° 60° (ENE) 18:33:57 437.365/2234.400
GOMX 1 27 Jan 18:35:34 18:36:33 11° 59° (ENE) 18:37:50 467.674
Cubesat XI-IV 27 Jan 18:39:26 18:43:42 24° 267° (W) 18:47:53 437.490
SEEDS 27 Jan 18:54:39 18:55:30 11° 64° (ENE) 18:56:36 437.485
DOVE 4 27 Jan 18:55:40 18:57:32 12° 61° (ENE) 18:59:42 437.250
CUTE-I 27 Jan 19:01:22 19:04:34 15° 271° (W) 19:07:31 437.470
PRISM 27 Jan 19:13:43 19:17:27 32° 289° (WNW) 19:21:09 437.425
SO-50 27 Jan 19:17:45 19:22:36 57° 53° (NE) 19:27:28 436.795
STRAND 1 27 Jan 19:21:20 19:26:29 71° 286° (WNW) 19:31:37 437.568
COMPASS 1 27 Jan 19:21:49 19:24:36 18° 67° (ENE) 19:27:32 437.405
HO-68 27 Jan 19:24:32 19:31:20 50° 67° (ENE) 19:38:12 435.675
CANX-2 27 Jan 19:29:23 19:33:13 33° 71° (ENE) 19:37:06 2200.000
YUBILEINY 27 Jan 19:46:31 19:55:09 78° 95° (E) 20:03:53 435.215
AAUSAT CUBESAT 2 27 Jan 19:48:35 19:52:14 30° 71° (ENE) 19:55:57 437.432
Oscar 11 27 Jan 19:50:00 19:52:40 17° 66° (ENE) 19:55:29 145.826/435.025
CUTE 1.7 + AOD 2 27 Jan 19:53:25 19:57:37 55° 74° (ENE) 20:01:49 437.475
DELFI C3 27 Jan 19:55:54 19:58:01 14° 66° (ENE) 20:00:17 145.870
CUBESAT XI-V 27 Jan 20:01:01 20:04:20 19° 294° (WNW) 20:07:31 437.345
BRITE-PL 27 Jan 20:04:07 20:09:06 83° 260° (W) 20:14:31 437.365/2234.400
GOMX 1 27 Jan 20:08:48 20:13:47 79° 75° (ENE) 20:19:09 467.674
CUBEBUG 2 27 Jan 20:18:39 20:22:28 25° 68° (ENE) 20:26:26 437.445
UKube-1 27 Jan 20:23:37 20:26:57 23° 68° (ENE) 20:30:24 .
SEEDS 27 Jan 20:26:34 20:30:50 72° 258° (WSW) 20:35:06 437.485
DOVE 4 27 Jan 20:29:33 20:34:33 89° 268° (W) 20:39:50 437.250
CINEMA 3 27 Jan 20:30:06 20:34:53 55° 73° (ENE) 20:39:49 145.822/145.860
ZACube-1 27 Jan 20:34:17 20:38:00 25° 69° (ENE) 20:41:51 437.345
DX 1 27 Jan 20:41:33 20:45:30 36° 71° (ENE) 20:49:32 434.975-435.025
50 SAT 27 Jan 20:46:06 20:47:52 13° 65° (ENE) 20:49:48 437.505
FUNcube-1 27 Jan 20:46:28 20:50:32 33° 70° (ENE) 20:54:42 145.935
HUMSAT D 27 Jan 20:51:50 20:55:01 21° 68° (ENE) 20:58:19 437.325/437.525
COMPASS 1 27 Jan 20:56:05 21:00:05 39° 262° (W) 21:04:04 437.405
AISAT 27 Jan 20:58:18 21:01:36 21° 67° (ENE) 21:05:03 437.250
SO-50 27 Jan 20:59:23 21:02:48 18° 249° (WSW) 21:06:03 436.795
UWE-3 27 Jan 21:01:39 21:06:13 58° 75° (ENE) 21:10:53 435.000/436.395/437.385
CANX-2 27 Jan 21:05:56 21:09:16 21° 267° (W) 21:12:30 2200.000
HO-68 27 Jan 21:13:04 21:19:20 31° 265° (W) 21:25:29 435.675
Oscar 11 27 Jan 21:24:21 21:28:32 46° 261° (W) 21:32:44 145.826/435.025
AAUSAT CUBESAT 2 27 Jan 21:24:36 21:27:58 22° 267° (W) 21:31:13 437.432
VELOX 1 27 Jan 21:26:35 21:30:42 40° 72° (ENE) 21:34:54 145.980
DELFI C3 27 Jan 21:28:58 21:32:55 47° 261° (W) 21:36:53 145.870
CUTE 1.7 + AOD 2 27 Jan 21:32:02 21:33:59 12° 271° (W) 21:35:42 437.475
CUBEBUG 1 27 Jan 21:41:07 21:44:31 23° 68° (ENE) 21:48:02 437.445
YUBILEINY 27 Jan 21:46:30 21:53:08 22° 297° (WNW) 21:59:25 435.215
GOMX 1 27 Jan 21:50:43 21:52:45 12° 276° (W) 21:54:30 467.674
QB50P2 27 Jan 21:51:32 21:52:38 11° 88° (E) 21:54:01 145.880/145.840
CUBEBUG 2 27 Jan 21:54:44 21:59:03 34° 265° (W) 22:03:24 437.445
UNISAT 6 27 Jan 21:57:07 22:00:37 23° 93° (E) 22:04:08 437.425
UKube-1 27 Jan 21:59:06 22:02:59 32° 263° (W) 22:06:52 .
QB50P1 27 Jan 22:00:31 22:02:45 14° 90° (E) 22:05:11 145.935-145.965
CINEMA 3 27 Jan 22:09:18 22:12:31 17° 271° (W) 22:15:34 145.822/145.860
ZACube-1 27 Jan 22:10:08 22:14:17 32° 265° (W) 22:18:24 437.345
POLYITAN 1 27 Jan 22:13:22 22:16:33 20° 93° (E) 22:19:48 437.675
ISS 27 Jan 22:14:59 22:18:11 55° 140° (SE) 22:21:26 145.825
TISAT 1 27 Jan 22:18:02 22:20:09 14° 65° (ENE) 22:22:27 437.305
50 SAT 27 Jan 22:18:30 22:22:34 56° 260° (W) 22:26:40 437.505
DX 1 27 Jan 22:18:41 22:21:55 20° 267° (W) 22:25:03 434.975-435.025
BUGSAT 1 27 Jan 22:20:50 22:23:47 19° 92° (E) 22:26:52 437.445
FUNcube-1 27 Jan 22:23:11 22:26:57 24° 267° (W) 22:30:40 145.935
HUMSAT D 27 Jan 22:26:36 22:30:37 35° 263° (W) 22:34:38 437.325/437.525
ESTCUBE 1 27 Jan 22:30:48 22:35:17 87° 78° (ENE) 22:39:48 437.505/2401.250
AIST 1 27 Jan 22:31:25 22:35:46 69° 80° (E) 22:40:07
ANTELSAT 27 Jan 22:32:20 22:36:45 55° 100° (E) 22:41:03 437.575/2403.000
POPSAT HIP 1 27 Jan 22:33:48 22:37:43 33° 96° (E) 22:41:38 437.405
AISAT 27 Jan 22:33:57 22:38:03 36° 263° (W) 22:42:10 437.250
DUCHIFAT 1 27 Jan 22:37:26 22:41:25 36° 97° (E) 22:45:24 145.980
UWE-3 27 Jan 22:40:36 22:43:13 14° 271° (W) 22:45:38 435.000/436.395/437.385
TIGRISAT 27 Jan 22:41:05 22:45:34 68° 101° (E) 22:49:54 435.000
VELOX 1 27 Jan 23:04:23 23:07:31 18° 268° (W) 23:10:32 145.980
SPROUT 27 Jan 23:08:30 23:12:39 49° 73° (ENE) 23:16:52 437.525
NANOSAT C BR1 27 Jan 23:11:24 23:15:44 90° 9° (N) 23:20:02 145.865
CUBEBUG 1 27 Jan 23:16:55 23:20:47 31° 264° (W) 23:24:40 437.445
QB50P2 27 Jan 23:24:48 23:29:05 63° 285° (WNW) 23:33:20 145.880/145.840
SWISSCUBE 27 Jan 23:31:18 23:34:09 17° 64° (ENE) 23:37:11 437.505
UNISAT 6 27 Jan 23:33:30 23:37:30 32° 290° (WNW) 23:41:22 437.425
QB50P1 27 Jan 23:34:49 23:39:00 49° 287° (WNW) 23:43:08 145.935-145.965
BEESAT 27 Jan 23:46:41 23:50:12 22° 66° (ENE) 23:53:50 436.000
POLYITAN 1 27 Jan 23:48:40 23:52:37 34° 289° (WNW) 23:56:30 437.675
ITUPSAT 1 27 Jan 23:49:25 23:53:00 22° 67° (ENE) 23:56:44 437.325
TISAT 1 27 Jan 23:51:26 23:55:34 53° 260° (W) 23:59:46 437.305
ISS 27 Jan 23:52:10 23:54:54 23° 337° (NNW) 23:57:39 145.825
BUGSAT 1 27 Jan 23:55:29 23:59:27 37° 289° (WNW) 00:03:24 437.445
GONETS M04 27 Jan 23:56:02 00:01:36 20° 81° (E) 00:07:35
POPSAT HIP 1 28 Jan 00:10:07 00:13:28 22° 292° (WNW) 00:16:41 437.405
ANTELSAT 28 Jan 00:10:38 00:13:07 14° 296° (WNW) 00:15:25 437.575/2403.000
DUCHIFAT 1 28 Jan 00:13:53 00:17:04 20° 293° (WNW) 00:20:09 145.980
TIGRISAT 28 Jan 00:19:57 00:21:48 12° 297° (WNW) 00:23:24 435.000
KKS-1 28 Jan 00:35:29 00:37:25 13° 63° (ENE) 00:39:34 437.445
SPROUT 28 Jan 00:46:41 00:49:07 14° 270° (W) 00:51:22 437.525
O/OREOS (USA 219) 28 Jan 00:47:06 00:48:17 11° 49° (NE) 00:49:41 437.305
SWISSCUBE 28 Jan 01:06:58 01:11:38 55° 260° (W) 01:16:20 437.505
BEESAT 28 Jan 01:23:20 01:27:49 41° 262° (W) 01:32:19 436.000
M-CUBED/EXP-1 PRIME 28 Jan 01:24:12 01:27:07 20° 65° (ENE) 01:29:59 437.505
ITUPSAT 1 28 Jan 01:26:15 01:30:43 39° 262° (W) 01:35:11 437.325
ISS 28 Jan 01:30:47 01:32:19 13° 357° (N) 01:33:51 145.825
Oscar 19 28 Jan 01:31:49 01:36:58 68° 101° (ESE) 01:42:04 437.125/150
ITAMSAT 1 28 Jan 01:44:42 01:49:16 31° 95° (E) 01:53:55 435.822/435.867
GONETS M04 28 Jan 01:48:43 01:57:31 82° 278° (W) 02:06:18
BEESAT 2 28 Jan 01:55:28 01:58:47 24° 113° (ESE) 02:02:13 435.950
AUBIESAT-1 28 Jan 01:57:47 02:01:36 42° 69° (ENE) 02:05:11 437.475
STARS 28 Jan 02:06:15 02:10:41 77° 76° (ENE) 02:15:10 437.465
KKS-1 28 Jan 02:09:09 02:13:36 65° 259° (WSW) 02:18:06 437.445
BEESAT 3 28 Jan 02:10:36 02:14:25 40° 117° (ESE) 02:18:21 437.485
HORYU 2 28 Jan 02:16:17 02:17:13 11° 88° (E) 02:18:26 437.375
O/OREOS (USA 219) 28 Jan 02:23:52 02:28:30 90° 253° (WSW) 02:33:06 437.305
Gurwin Techsat 1B 28 Jan 02:32:13 02:37:30 60° 100° (E) 02:42:45 435.225
CUSAT 1 28 Jan 02:32:26 02:36:12 15° 80° (E) 02:40:37 437.405
RS-15 28 Jan 02:50:14 02:52:59 12° 98° (E) 02:56:52 29.354- 29.394
M-CUBED/EXP-1 PRIME 28 Jan 02:58:16 03:02:00 32° 257° (WSW) 03:05:28 437.505
ISS 28 Jan 03:07:27 03:09:50 18° 17° (NNE) 03:12:14 145.825
Oscar 19 28 Jan 03:12:44 03:15:49 16° 297° (WNW) 03:18:42 437.125/150
AIST 2 28 Jan 03:20:26 03:24:41 84° 121° (ESE) 03:29:01 435.215
ITAMSAT 1 28 Jan 03:24:08 03:28:47 32° 292° (WNW) 03:33:21 435.822/435.867
AO-7 28 Jan 03:31:58 03:39:26 37° 97° (E) 03:46:59 29.400- 29.500
BEESAT 2 28 Jan 03:33:09 03:36:54 32° 310° (NW) 03:40:40 435.950
DANDE 28 Jan 03:34:10 03:41:18 37° 88° (E) 03:49:04 436.750
AUBIESAT-1 28 Jan 03:34:22 03:36:42 14° 262° (W) 03:38:47 437.475
MOZHAYETS 4 28 Jan 03:37:33 03:41:51 41° 72° (ENE) 03:46:11
BEESAT 3 28 Jan 03:49:32 03:52:46 21° 315° (NW) 03:55:57 437.485
HORYU 2 28 Jan 03:50:02 03:54:28 68° 285° (WNW) 03:58:51 437.375
GONETS M04 28 Jan 03:50:34 03:56:03 17° 301° (WNW) 04:01:01
PCSat 28 Jan 03:55:55 04:00:44 35° 111° (ESE) 04:05:39 145.827
CUSAT 1 28 Jan 04:10:03 04:18:04 72° 96° (E) 04:26:31 437.405
Gurwin Techsat 1B 28 Jan 04:13:25 04:17:04 18° 296° (WNW) 04:20:31 435.225
PRISM 28 Jan 04:30:08 04:32:28 15° 66° (ENE) 04:34:58 437.425
JAS-2 28 Jan 04:41:48 04:47:23 61° 101° (E) 04:53:40 435.910
ISS 28 Jan 04:43:27 04:46:46 81° 35° (NE) 04:50:05 145.825
RS-15 28 Jan 04:52:48 05:03:29 66° 116° (ESE) 05:14:19 29.354- 29.394
STRAND 1 28 Jan 04:59:40 05:03:14 20° 65° (ENE) 05:06:58 437.568
AIST 2 28 Jan 05:01:40 05:03:57 14° 321° (NW) 05:06:07 435.215
MOZHAYETS 4 28 Jan 05:15:59 05:19:19 19° 269° (W) 05:22:30
DANDE 28 Jan 05:16:35 05:24:32 54° 287° (WNW) 05:33:00 436.750
Cubesat XI-IV 28 Jan 05:16:57 05:20:23 18° 90° (E) 05:24:00 437.490
AO-7 28 Jan 05:24:29 05:32:29 51° 295° (WNW) 05:40:21 29.400- 29.500
CUBESAT XI-V 28 Jan 05:25:56 05:30:15 42° 72° (ENE) 05:34:38 437.345
CUTE-I 28 Jan 05:36:36 05:41:03 27° 94° (E) 05:45:35 437.470
PCSat 28 Jan 05:39:13 05:44:09 34° 308° (NW) 05:49:05 145.827
CUSAT 1 28 Jan 05:54:58 06:01:54 28° 295° (WNW) 06:08:46 437.405
YUBILEINY 28 Jan 05:57:17 06:05:15 38° 71° (ENE) 06:13:21 435.215
PRISM 28 Jan 06:03:45 06:07:41 44° 261° (W) 06:11:39 437.425
ISS 28 Jan 06:21:53 06:22:54 11° 230° (SW) 06:23:45 145.825
JAS-2 28 Jan 06:28:12 06:32:14 20° 295° (WNW) 06:36:21 435.910
STRAND 1 28 Jan 06:37:10 06:42:06 50° 260° (W) 06:47:04 437.568
